[[{"header":{"parameterUnit":"m.s-1","parameterCategory":1,"la1":30.2991,"la2":30.254,"lo1":-89.0895,"lo2":-89.0444,"dy":0.0017,"dx":0.0017,"nx":28,"ny":28,"refTime":"2023-10-11T03:00:00:Z","depth":0,"parameterNumber":2,"parameterNumberName":"U-component_of_WINDS"},"data":[0,0,0,0,0,0,0,0,0,0,0,0,0,0,0,0,0,0,0,0,0,0,0,0,0,0,0,0,0,0,0,0,0,0,0,0,0,0,0,0,0,0,0,0,0,0,0,0,0,0,0,0,0,0,0,0,0,0,-4.0113,-4.0118,0,-4.0555,-4.056,-4.0565,-4.0567,-4.0561,-4.0555,-4.055,-4.1015,-4.1032,-4.105,0,0,0,0,0,0,0,0,0,0,0,0,0,-3.9283,-3.9298,-4.0112,-4.0118,-4.0123,-4.0554,-4.056,-4.0566,-4.0568,-4.0561,-4.0554,-4.0547,-4.1009,-4.103,-4.1051,0,0,0,0,0,0,0,0,0,0,0,0,0,-3.9676,-3.9303,-4.0111,-4.0176,-4.0186,-4.0553,-4.056,-4.0568,-4.0569,-4.0561,-4.0552,-4.0544,-4.1002,-4.1028,-4.1054,-4.139,0,0,-4.1136,-4.1147,0,0,0,0,0,0,0,0,-3.9654,-3.9707,-4.0161,-4.0172,-4.0184,-4.0497,-4.0438,-4.0844,-4.0572,-4.0424,-4.055,-4.054,-4.085,-4.0889,-4.0991,-4.1412,-4.1432,-4.1138,-4.1154,-4.1165,-4.1173,0,0,0,0,0,0,0,-3.9627,-3.9688,-4.0288,-4.0168,-4.0182,-4.0187,-4.0233,-4.0515,-4.0681,-4.0436,-4.0438,-4.0489,-4.0855,-4.0965,-4.1002,-4.1438,-4.1137,-4.1161,-4.1177,-4.1188,-4.2163,-4.2173,0,0,0,0,0,0,-3.9584,-3.9665,-4.0274,-4.0301,-3.9892,-4.0209,-4.0261,-4.0405,-4.0677,-4.071,-4.0496,-4.0488,-4.0924,-4.0971,-4.1018,-4.1434,-4.1165,-4.119,-4.1205,-4.2154,-4.2166,-4.2176,0,0,0,0,0,0,-3.9567,-3.9639,-4.0256,-3.9984,-4.0062,-4.0232,-4.0395,-4.0418,-4.0529,-4.0722,-4.0753,-4.0578,-4.0919,-4.0981,-4.1298,-4.145,-4.1202,-4.1226,-4.2142,-4.2157,-4.2171,-4.2265,0,0,0,0,0,0,-3.9543,-3.9632,-3.9758,-3.9986,-4.0077,-4.0525,-4.0404,-4.0433,-4.0573,-4.0566,-4.0807,-4.0839,-4.0917,-4.1258,-4.1324,-4.1482,-4.1247,-4.2129,-4.2149,-4.2166,-4.225,-4.2282,-4.2309,0,0,0,0,0,-3.9513,-3.9769,-3.9765,-3.9838,-4.0237,-4.0533,-4.0586,-4.0667,-4.0585,-4.0716,-4.0841,-4.0831,-4.1421,-4.1291,-4.1365,-4.1533,-4.212,-4.2143,-4.2165,-4.2236,-4.2275,-4.2308,0,0,0,0,0,0,-3.9558,-3.98,-3.9798,-4.0134,-4.0312,-4.0533,-4.07,-4.0705,-4.0914,-4.09,-4.0996,-4.1051,-4.1368,-4.1482,-4.1332,-4.1876,-4.1761,-4.18,-4.179,-4.1829,-4.1858,-4.1827,-4.1269,0,0,0,0,0,-3.9606,-3.9822,-4.0023,-4.03,-4.0389,-4.0529,-4.0661,-4.0708,-4.0899,-4.0976,-4.1124,-4.1313,-4.1542,-4.1691,-4.1911,-4.2264,-4.2321,-4.2417,-4.2446,-4.247,-4.2504,-4.2706,-4.2753,-4.225,-4.225,-4.225,0,0,-3.9709,-3.9868,-3.9999,-4.0313,-4.0457,-4.0684,-4.0593,-4.0835,-4.1006,-4.1014,-4.1323,-4.1438,-4.1656,-4.1994,-4.215,-4.2099,-4.2655,-4.2499,-4.2516,-4.2538,-4.2734,-4.2781,-4.2823,-4.2265,-4.2263,-4.226,0,0,-4.0015,-4.0153,-4.0402,-4.0548,-4.0766,-4.0858,-4.0917,-4.1138,-4.1214,-4.1524,-4.1536,-4.1742,-4.2132,-4.2289,-4.2419,-4.2785,-4.2787,-4.2855,-4.3013,-4.3208,-4.3248,-4.3284,-4.3421,-4.3468,-4.2887,-4.2887,-4.2887,0,-4.0117,-4.0455,-4.053,-4.0775,-4.0916,-4.0928,-4.1185,-4.1324,-4.1605,-4.1704,-4.164,-4.2133,-4.228,-4.2657,-4.2746,-4.2849,-4.2926,-4.283,-4.3235,-4.3272,-4.3306,-4.3438,-4.3489,-4.2894,-4.2893,-4.2893,-4.2892,0,-4.0573,-4.0808,-4.0983,-4.1251,-4.1411,-4.1659,-4.1778,-4.1931,-4.1964,-4.2064,-4.2383,-4.256,-4.2819,-4.2911,-4.2947,-4.3296,-4.3258,-4.3213,-4.3102,-4.336,-4.3486,-4.3537,-4.2905,-4.2902,-4.29,-4.2898,0,0,-4.0922,-4.1228,-4.1292,-4.1416,-4.1658,-4.1844,-4.2095,-4.2344,-4.2477,-4.267,-4.2888,-4.3218,-4.318,-4.3328,-4.3382,-4.3552,-4.3839,-4.3488,-4.3495,-4.3553,-4.4242,-4.4278,-4.4334,-4.3838,-4.3848,-4.3856,-4.4226,0,-4.1258,-4.1701,-4.1778,-4.2168,-4.2389,-4.2405,-4.2626,-4.2801,-4.2901,-4.3106,-4.3218,-4.3453,-4.3381,-4.3471,-4.364,-4.3767,-4.3979,-4.3741,-4.4049,-4.4059,-4.4,-4.4399,-4.4438,-4.4778,-4.4274,-4.4283,-4.4289,0,-4.171,-4.1913,-4.2324,-4.254,-4.2636,-4.2831,-4.3069,-4.3263,-4.3464,-4.3525,-4.3691,-4.3725,-4.3993,-4.3864,-4.4238,-4.4075,-4.4205,-4.4287,-4.4302,-4.4339,-4.4194,-4.4454,-4.4888,-4.4942,-4.4366,-4.436,-4.4354,0,-4.1931,-4.2307,-4.2603,-4.2707,-4.2965,-4.3103,-4.3218,-4.3409,-4.3556,-4.3764,-4.3862,-4.4099,-4.4232,-4.4417,-4.4517,-4.4413,-4.4887,-4.4765,-4.4951,-4.4949,-4.5055,-4.5048,-4.5523,-4.5128,-4.5127,-4.5126,-4.5125,0,-4.2302,-4.2555,-4.2706,-4.2889,-4.3175,-4.3261,-4.3543,-4.3655,-4.3826,-4.4035,-4.4063,-4.426,-4.4376,-4.4592,-4.4671,-4.4973,-4.503,-4.5092,-4.5112,-4.5094,-4.5087,-4.5185,-4.5167,-4.514,-4.5137,-4.5134,-4.5132,0,-4.26,-4.271,-4.3035,-4.3251,-4.3312,-4.3514,-4.3701,-4.3883,-4.398,-4.4245,-4.4313,-4.447,-4.4725,-4.4841,-4.5156,-4.521,-4.5556,-4.5555,-4.5487,-4.5496,-4.5678,-4.5662,-4.6238,-4.6321,-4.5864,-4.5868,-4.5871,0,-4.2832,-4.3027,-4.3264,-4.3404,-4.3522,-4.3747,-4.3896,-4.399,-4.4145,-4.439,-4.4544,-4.4798,-4.5007,-4.5415,-4.5561,-4.5803,-4.5814,-4.5999,-4.5851,-4.5828,-4.5825,-4.5815,-4.5838,-4.6028,-4.6032,-4.6036,-4.6039,0,-4.3236,-4.3281,-4.3493,-4.3726,-4.3903,-4.4092,-4.4277,-4.4391,-4.4515,-4.4689,-4.4948,-4.511,-4.5431,-4.5687,-4.5939,-4.6063,-4.6076,-4.6083,-4.614,-4.6127,-4.6083,-4.6116,-4.5568,-4.6071,-4.6068,-4.6065,-4.6064,-4.6062,-4.3513,-4.3689,-4.3884,-4.4121,-4.4269,-4.4442,-4.4624,-4.4744,-4.4961,-4.5228,-4.527,-4.5548,-4.5749,-4.6088,-4.6221,-4.6443,-4.64,-4.6481,-4.6503,-4.6524,-4.6538,-4.6041,-4.6489,-4.6488,-4.6487,-4.6487,-4.6486,0,-4.3923,-4.4049,-4.4266,-4.4523,-4.4711,-4.4699,-4.4904,-4.5064,-4.5307,-4.5491,-4.5695,-4.5997,-4.6245,-4.6409,-4.6661,-4.6809,-4.6821,-4.6873,-4.6866,-4.6896,-4.6558,-4.6487,-4.6859,-4.6859,-4.6859,-4.6858,-4.6858,-4.6858,-4.4159,-4.4458,-4.4527,-4.4901,-4.5026,-4.5297,-4.5416,-4.5578,-4.5725,-4.6058,-4.6263,-4.6367,-4.6546,-4.6811,-4.7041,-4.7083,-4.7178,-4.7233,-4.7275,-4.6958,-4.6919,-4.6882,-4.6816,-4.7251,-4.7251,-4.7595,-4.7598,-4.76]},{"header":{"parameterUnit":"m.s-1","parameterCategory":1,"la1":30.2991,"la2":30.254,"lo1":-89.0895,"lo2":-89.0444,"dy":0.0017,"dx":0.0017,"nx":28,"ny":28,"refTime":"2023-10-11T03:00:00:Z","depth":0,"parameterNumber":3,"parameterNumberName":"V-component_of_WINDS"},"data":[0,0,0,0,0,0,0,0,0,0,0,0,0,0,0,0,0,0,0,0,0,0,0,0,0,0,0,0,0,0,0,0,0,0,0,0,0,0,0,0,0,0,0,0,0,0,0,0,0,0,0,0,0,0,0,0,0,0,-4.5074,-4.5075,0,-4.5095,-4.5095,-4.5095,-4.5038,-4.5037,-4.5035,-4.5033,-4.5052,-4.5054,-4.5056,0,0,0,0,0,0,0,0,0,0,0,0,0,-4.4983,-4.4985,-4.5074,-4.5075,-4.5075,-4.5095,-4.5095,-4.5095,-4.5039,-4.5036,-4.5034,-4.5032,-4.5051,-4.5054,-4.5056,0,0,0,0,0,0,0,0,0,0,0,0,0,-4.5015,-4.4986,-4.5074,-4.5049,-4.5047,-4.5095,-4.5095,-4.5096,-4.5039,-4.5036,-4.5034,-4.5031,-4.505,-4.5053,-4.5057,-4.5129,0,0,-4.5066,-4.5068,0,0,0,0,0,0,0,0,-4.5013,-4.5019,-4.5053,-4.5051,-4.5049,-4.5061,-4.507,-4.5107,-4.504,-4.5042,-4.5033,-4.503,-4.5057,-4.5059,-4.5069,-4.513,-4.5131,-4.5067,-4.5069,-4.507,-4.5071,0,0,0,0,0,0,0,-4.5011,-4.5017,-4.5082,-4.5053,-4.5051,-4.5036,-4.5037,-4.5077,-4.5064,-4.5042,-4.5037,-4.5041,-4.5055,-4.5066,-4.5069,-4.5131,-4.5067,-4.5069,-4.5071,-4.5073,-4.5252,-4.5255,0,0,0,0,0,0,-4.5013,-4.5016,-4.5082,-4.5083,-4.5024,-4.504,-4.5041,-4.506,-4.5063,-4.5061,-4.5043,-4.5038,-4.5062,-4.5065,-4.507,-4.5154,-4.507,-4.5073,-4.5075,-4.5249,-4.5253,-4.5256,0,0,0,0,0,0,-4.5011,-4.5019,-4.5081,-4.5048,-4.5055,-4.5044,-4.5065,-4.5062,-4.5072,-4.5065,-4.5062,-4.5057,-4.506,-4.5065,-4.5115,-4.5154,-4.5074,-4.5077,-4.5246,-4.525,-4.5254,-4.5325,0,0,0,0,0,0,-4.5009,-4.5019,-4.5047,-4.505,-4.5057,-4.5127,-4.5068,-4.5064,-4.5078,-4.5072,-4.5076,-4.5075,-4.5058,-4.511,-4.5118,-4.5157,-4.508,-4.5242,-4.5248,-4.5253,-4.5319,-4.5331,-4.5342,0,0,0,0,0,-4.5006,-4.5066,-4.5049,-4.5057,-4.5092,-4.5129,-4.5133,-4.5114,-4.5082,-4.5109,-4.5104,-4.5074,-4.5149,-4.5116,-4.5124,-4.5165,-4.524,-4.5246,-4.5253,-4.5314,-4.5329,-4.5341,0,0,0,0,0,0,-4.5067,-4.5066,-4.5047,-4.511,-4.512,-4.512,-4.5154,-4.5131,-4.515,-4.5143,-4.5117,-4.5119,-4.5173,-4.5174,-4.5137,-4.5235,-4.5189,-4.5197,-4.5233,-4.5247,-4.5258,-4.5256,-4.5082,0,0,0,0,0,-4.5088,-4.512,-4.5116,-4.5172,-4.5178,-4.5165,-4.5181,-4.5165,-4.5175,-4.5178,-4.5177,-4.5187,-4.5212,-4.5229,-4.5252,-4.5319,-4.5319,-4.5351,-4.5362,-4.5372,-4.5379,-4.5414,-4.5428,-4.5277,-4.5277,-4.5277,0,0,-4.5132,-4.5135,-4.5156,-4.5184,-4.519,-4.5222,-4.5169,-4.5205,-4.5229,-4.5184,-4.5231,-4.523,-4.5239,-4.5298,-4.5323,-4.53,-4.5421,-4.538,-4.5387,-4.5389,-4.5422,-4.5436,-4.5449,-4.5281,-4.5281,-4.528,0,0,-4.5227,-4.5233,-4.528,-4.5288,-4.5298,-4.5289,-4.5301,-4.5304,-4.5302,-4.5349,-4.5316,-4.5343,-4.5387,-4.5395,-4.5405,-4.5504,-4.5477,-4.5512,-4.557,-4.5604,-4.5616,-4.5627,-4.5661,-4.5674,-4.5519,-4.5519,-4.5519,0,-4.528,-4.5327,-4.5307,-4.5345,-4.5358,-4.532,-4.5367,-4.5375,-4.5392,-4.5402,-4.5375,-4.5431,-4.5434,-4.5494,-4.5518,-4.5527,-4.5539,-4.5511,-4.5616,-4.5627,-4.5636,-4.5669,-4.5682,-4.5523,-4.5523,-4.5523,-4.5522,0,-4.5391,-4.5425,-4.5461,-4.548,-4.5497,-4.5539,-4.5524,-4.5544,-4.5527,-4.5521,-4.5569,-4.5572,-4.5595,-4.5608,-4.5591,-4.5665,-4.565,-4.5621,-4.5573,-4.5655,-4.5685,-4.5698,-4.5529,-4.5528,-4.5527,-4.5526,0,0,-4.5525,-4.5533,-4.5546,-4.5554,-4.5563,-4.5588,-4.5628,-4.5651,-4.5669,-4.5682,-4.5715,-4.5754,-4.5726,-4.5737,-4.5721,-4.5752,-4.5829,-4.5718,-4.5718,-4.5738,-4.5911,-4.5932,-4.5947,-4.5812,-4.5814,-4.5816,-4.591,0,-4.5619,-4.569,-4.5672,-4.5742,-4.5772,-4.5736,-4.5771,-4.578,-4.5775,-4.58,-4.5794,-4.5822,-4.5784,-4.579,-4.5819,-4.5814,-4.5863,-4.5807,-4.5841,-4.5843,-4.584,-4.5963,-4.5987,-4.6075,-4.5921,-4.5923,-4.5925,0,-4.5738,-4.5757,-4.5829,-4.5833,-4.5845,-4.5877,-4.5897,-4.5921,-4.593,-4.5924,-4.5938,-4.5915,-4.5955,-4.5908,-4.5961,-4.5923,-4.5936,-4.5936,-4.5939,-4.5941,-4.5888,-4.5968,-4.6103,-4.6116,-4.5943,-4.5942,-4.5941,0,-4.5828,-4.5871,-4.592,-4.5928,-4.5934,-4.5957,-4.5961,-4.5967,-4.5982,-4.5999,-4.6009,-4.603,-4.6041,-4.6058,-4.6042,-4.6009,-4.6098,-4.605,-4.6094,-4.6094,-4.6113,-4.6112,-4.6251,-4.6123,-4.6123,-4.6122,-4.6122,0,-4.5934,-4.598,-4.5961,-4.5991,-4.6041,-4.602,-4.607,-4.6069,-4.6075,-4.6104,-4.6074,-4.6102,-4.6079,-4.6104,-4.6092,-4.6138,-4.6144,-4.614,-4.6136,-4.6142,-4.6143,-4.615,-4.6143,-4.6126,-4.6125,-4.6125,-4.6124,0,-4.6043,-4.6032,-4.6083,-4.6085,-4.6086,-4.6123,-4.6124,-4.6151,-4.6145,-4.6182,-4.6189,-4.6178,-4.6207,-4.6193,-4.6222,-4.6213,-4.6273,-4.6261,-4.627,-4.6267,-4.6311,-4.6307,-4.6459,-4.6478,-4.6338,-4.634,-4.6341,0,-4.6111,-4.6146,-4.6151,-4.6169,-4.6175,-4.6203,-4.6218,-4.6199,-4.6216,-4.623,-4.6255,-4.6281,-4.6301,-4.6348,-4.6342,-4.6364,-4.6352,-4.6404,-4.6355,-4.6361,-4.6353,-4.6351,-4.6354,-4.6414,-4.6415,-4.6417,-4.6418,0,-4.6233,-4.6226,-4.625,-4.6272,-4.6292,-4.6308,-4.6321,-4.6337,-4.6318,-4.6339,-4.6368,-4.6383,-4.6414,-4.6439,-4.6459,-4.6461,-4.6437,-4.6434,-4.6445,-4.6451,-4.6455,-4.6453,-4.6296,-4.643,-4.6429,-4.6428,-4.6427,-4.6427,-4.6323,-4.6352,-4.6361,-4.6388,-4.6397,-4.641,-4.6436,-4.6433,-4.6457,-4.6481,-4.6468,-4.6502,-4.6509,-4.6533,-4.6539,-4.6565,-4.6544,-4.6561,-4.6565,-4.6569,-4.6575,-4.6452,-4.6568,-4.6568,-4.6568,-4.6567,-4.6567,0,-4.6443,-4.6447,-4.6473,-4.6493,-4.6515,-4.649,-4.6504,-4.6523,-4.6554,-4.6564,-4.6584,-4.6617,-4.6642,-4.6639,-4.6662,-4.6683,-4.6672,-4.669,-4.6688,-4.6689,-4.6592,-4.658,-4.6698,-4.6698,-4.6698,-4.6698,-4.6698,-4.6698,-4.6508,-4.6556,-4.655,-4.6601,-4.6604,-4.6638,-4.6648,-4.666,-4.6668,-4.6706,-4.6727,-4.6725,-4.673,-4.6753,-4.6775,-4.6773,-4.6783,-4.6804,-4.6798,-4.6708,-4.6695,-4.6683,-4.6671,-4.6807,-4.6807,-4.6892,-4.6893,-4.6894]}]]